TRAILBLAZER 2

Satellite information

Favourite Embed

Satellite Type and Status

PAYLOADIN ORBIT

Key statistics

Satellite TRAILBLAZER 2 at a glance.

Uptime

8298

Days in orbit

Revolutions

≈ 14.8

Per day

Orbit

LEO

Low Earth Orbit

Inclination

64.6

Latest

Satellite identification and parameters

Extended collection of information and parameters for TRAILBLAZER 2.

Object identification

Identified? True

Debris? False

Object name: TRAILBLAZER 2

International designator: 2002-058E

Object number (NORAD): 27609

Object ID (CCSDS): 27609

Country: UNITED STATES OF AMERICA (US)

Current information (Y/N): Y

RCS size: LARGE

Orbital parameters

Period: 97.236 minutes

Inclination: 64.5549 deg

SMA: 7004.502 km

Apoapsis: 663.287 km

Periapsis: 589.447 km

RAAN: 127.3905 deg

Eccentricy: 0.00527089

Argument of periapsis: 284.4926 deg

Mean anomaly: 75.0335 deg

Mean motion: 14.80937855 rev/day

Mean motion (dot): 0.00000437 rev/day2

B* drag term: 0.000074060654 1/REarth

Two-line elements (TLE)

Creation date: Sept. 8, 2025, 3:16 a.m.

Reference frame: TEME

Reference center: EARTH

Epoch: Sept. 7, 2025, 10:08 p.m. UTC

TLE line 0: 0 TRAILBLAZER 2

TLE line 1: 1 27609U 02058E 25250.92286638 .00000437 00000-0 74061-4 0 9993

TLE line 2: 2 27609 64.5549 127.3905 0052709 284.4926 75.0335 14.80937855225882

Live tracking on map

Real-time ground track for satellite TRAILBLAZER 2.

In-orbit conjunctions

A list of the most updated potential collisions computed for object TRAILBLAZER 2.

Target Orbit TCA Probability of collision Miss distance Type
CZ-6A DEB SSO 2025-06-13 00:51:42 0.0001309713 262.0 (m) DEBRIS
CZ-6A DEB LEO 2025-01-16 15:36:26 0.0002044734 115.0 (m) DEBRIS

Associated space launch

Technology satellite for OHB-System, Germany.

TRAILBLAZER 2 was lifted into orbit during the mission ‘Dnepr | AATiS-OSCAR-49’, on board a Dnepr space rocket.

The launch took place on Dec. 20, 2002, 5 p.m. from 109/95.

For more information about the launch, click the button.

Launch to space Dnepr | AATiS-OSCAR-49
Dnepr | AATiS-OSCAR-49

Agency: N/A

Status: Launch Successful

Launch date: Dec. 20, 2002, 5 p.m. UTC

Rocket: Dnepr

Launch pad: 109/95

Location: Baikonur Cosmodrome, Republic of Kazakhstan

...

Latest news about this satellite

There are no fresh news available about this satellite. Check back as we update our databases every day.


Newsletter sign-up

Weekly statistics, charts and insights to help you stay on top of the space industry.